Tracking 19149 objects as of 20-Apr-2018
HD Live streaming from Space Station
objects crossing your sky now

EKRAN 11

Track EKRAN 11 now!
EKRAN 11 is classified as:


NORAD ID: 14377
Int'l Code: 1983-100A
Perigee: 35,794.6 km
Apogee: 35,825.2 km
Inclination: 13.4 °
Period: 1,436.9 minutes
Semi major axis: 42180 km
RCS: 1.2589 m2 (large)
Launch date: September 29, 1983
Source: Commonwealth of Independent States (former USSR) (CIS)
Launch site: TYURATAM MISSILE AND SPACE COMPLEX (TTMTR)
aabbcc
Your satellite tracking list
Your tracking list is empty




NASA's NSSDC Master Catalog

Two Line Element Set (TLE):
1 14377U 83100A   18109.93694432 -.00000040 +00000-0 +00000-0 0  9998
2 14377 013.4317 332.5579 0003620 312.6918 328.3709 01.00214118017488
Source of the keplerian elements: AFSPC